Weather History for Daggett-Barstow, CA

Change the Weather History Date:

Tuesday, February 5, 2013

  Actual Average Record
Temperature  
Mean Temperature 59 °F -  
Max Temperature 75 °F 64 °F 79 °F (1963)
Min Temperature 43 °F 38 °F 24 °F (1985)
Degree Days  
Heating Degree Days 6    
Growing Degree Days 9 (Base 50)    
Moisture  
Dew Point 25 °F    
Average Humidity 30    
Maximum Humidity 47    
Minimum Humidity 13    
Precipitation  
Precipitation 0.00 in - - ()
Sea Level Pressure  
Sea Level Pressure 29.94 in    
Wind  
Wind Speed 10 mph (West)    
Max Wind Speed 22 mph    
Max Gust Speed 34 mph    
Visibility 10 miles    
Events      
Averages and records for this station are not official NWS values.
T = Trace of Precipitation, MM = Missing Value Source: NWS Daily Summary

Daily Weather History Graph

Daily Weather History Graph

Search for Another Location

Airport:

Trip Planner

Search our weather history database for the weather conditions in past years. The results will help you decide how hot, cold, wet, or windy it might be!

Date:

Astronomy

Feb. 05, 2013 Rise Set
Actual Time 6:42 AM PST 5:20 PM PST
Civil Twilight 6:15 AM PST 5:46 PM PST
Nautical Twilight 5:45 AM PST 6:16 PM PST
Astronomical Twilight 5:16 AM PST 6:46 PM PST
Moon 2:24 AM PST (2/5) 12:47 PM PST (2/5)
Length of Visible Light 11h 31m
Length of Day
10h 38m
Waning Crescent, 25% of the Moon is Illuminated
Feb 5
Waning Crescent
Feb 9
New
Feb 17
First Quarter
Feb 25
Full
Mar 4
Last Quarter

Hourly Weather History & Observations

Time (PST) Temp. Windchill Dew Point Humidity Pressure Visibility Wind Dir Wind Speed Gust Speed Precip Events Conditions
12:50 AM 48.0 °F - 25.0 °F 41% 30.01 in 10.0 mi West 10.4 mph - N/A   Clear
1:50 AM 51.1 °F - 24.1 °F 35% 30.00 in 10.0 mi West 13.8 mph - N/A   Clear
2:50 AM 46.9 °F - 24.1 °F 41% 29.99 in 10.0 mi West 12.7 mph - N/A   Clear
3:50 AM 46.0 °F 41.4 °F 24.1 °F 42% 29.99 in 10.0 mi West 9.2 mph - N/A   Clear
4:50 AM 45.0 °F 39.7 °F 24.1 °F 44% 29.99 in 10.0 mi West 10.4 mph - N/A   Clear
5:50 AM 43.0 °F 37.7 °F 24.1 °F 47% 29.99 in 10.0 mi WSW 9.2 mph - N/A   Clear
6:50 AM 45.0 °F 40.1 °F 24.1 °F 44% 30.01 in 10.0 mi WSW 9.2 mph - N/A   Clear
7:50 AM 46.9 °F - 26.1 °F 44% 30.01 in 10.0 mi West 3.5 mph - N/A   Clear
8:50 AM 52.0 °F - 25.0 °F 35% 30.02 in 10.0 mi West 15.0 mph - N/A   Clear
9:50 AM 60.1 °F - 25.0 °F 26% 30.01 in 10.0 mi West 8.1 mph - N/A   Clear
10:50 AM 63.0 °F - 25.0 °F 24% 30.00 in 10.0 mi WNW 3.5 mph - N/A   Clear
11:50 AM 70.0 °F - 25.0 °F 18% 29.95 in 10.0 mi WNW 4.6 mph - N/A   Clear
12:50 PM 73.0 °F - 24.1 °F 16% 29.91 in 10.0 mi West 5.8 mph - N/A   Clear
1:50 PM 73.9 °F - 21.9 °F 14% 29.87 in 10.0 mi Calm Calm - N/A   Clear
2:50 PM 75.0 °F - 23.0 °F 14% 29.85 in 10.0 mi ESE 6.9 mph - N/A   Clear
3:50 PM 75.0 °F - 21.0 °F 13% 29.84 in 10.0 mi Calm Calm - N/A   Clear
4:50 PM 71.1 °F - 21.0 °F 15% 29.84 in 10.0 mi East 4.6 mph - N/A   Clear
6:50 PM 66.9 °F - 25.0 °F 21% 29.88 in 10.0 mi West 16.1 mph - N/A   Clear
7:50 PM 64.9 °F - 27.0 °F 24% 29.88 in 10.0 mi SW 18.4 mph - N/A   Clear
8:50 PM 63.0 °F - 28.0 °F 27% 29.89 in 10.0 mi WSW 13.8 mph - N/A   Clear
9:50 PM 62.1 °F - 30.0 °F 30% 29.88 in 10.0 mi SW 17.3 mph - N/A   Clear
10:50 PM 61.0 °F - 32.0 °F 34% 29.87 in 10.0 mi WSW 21.9 mph 34.5 mph N/A   Clear
11:50 PM 59.0 °F - 35.1 °F 41% 29.86 in 10.0 mi WSW 21.9 mph 33.4 mph N/A   Clear